Flag for Germany Weather past 2 weeks in Zerbst/Anhalt, Saxony-Anhalt, Germany

Now
63 °F

Passing clouds.


Feels Like: 63 °F
Forecast: 47 / 68 °F
Wind: 3 mph from Southwest

Location: Magdeburg

Current Time: Jun 3, 2015 at 3:56:49 AM

Latest Report: Jun 3, 2015 at 3:00 AM


Visibility: 37 mi

Pressure: 29.93 "Hg

Humidity: 63%

Dew point: 50 °F

Location of Zerbst/AnhaltLocation

Historic Weather in Zerbst/Anhalt — Graph

°F

Zerbst/Anhalt temperature yesterday

Maximum temperature yesterday: 77 °F (at 4:00 PM)
Minimum temperature yesterday: 48 °F (at 1:00 AM)
Average temperature yesterday: 63 °F

Past Weeks' High & Low Weather Summary

 TemperatureHumidityPressure
High77 °F (Jun 2, 4:00 PM)98% (Jun 2, 4:00 AM)30.32 "Hg (Jun 2, 4:00 AM)
Low40 °F (May 21, 6:00 AM)27% (May 22, 3:00 PM)29.61 "Hg (May 19, 2:00 AM)
Average57 °F64%30.00 "Hg
* Reported May 19 2:00 AM — Jun 3 2:00 AM, Zerbst/Anhalt, Weather by CustomWeather, © 2015

Note: Actual official high and low records may vary slightly from our data, if they occured in-between our weather recording intervals... More about our weather records

Advertising

Zerbst/Anhalt weather history for previous 24 hours

 ConditionsComfort  
Time TempWeatherWind HumidityBarometerVisibility
2:00 AM
Wed, Jun 3
64 °FPassing clouds.3 mph61%29.93 "Hg43 mi
1:00 AM66 °FPassing clouds.3 mph57%29.93 "Hg43 mi
12:00 AM68 °FPassing clouds.3 mph54%29.92 "Hg43 mi
10:00 PM
Tue, Jun 2
71 °FOvercast.3 mph51%29.91 "Hg40 mi
9:00 PM71 °FPartly sunny.2 mph54%29.90 "Hg37 mi
8:00 PM73 °FPartly sunny.5 mph48%29.89 "Hg37 mi
7:00 PM74 °FPartly sunny.5 mph45%29.89 "Hg37 mi
6:00 PM74 °FPartly sunny.7 mph44%29.89 "Hg31 mi
4:00 PM77 °FOvercast.8 mph36%29.87 "Hg31 mi
3:00 PM74 °FScattered clouds.8 mph39%29.87 "Hg31 mi
2:00 PM70 °FPartly sunny.8 mph43%29.89 "Hg25 mi
1:00 PM67 °FPartly sunny.8 mph51%29.90 "Hg25 mi
12:00 PM65 °FOvercast.7 mph58%29.91 "Hg25 mi
11:00 AM64 °FPartly sunny.9 mph57%29.91 "Hg25 mi
10:00 AM62 °FPartly sunny.7 mph62%29.91 "Hg25 mi
9:00 AM60 °FScattered clouds.5 mph71%29.92 "Hg22 mi
8:00 AM56 °FPartly sunny.6 mph78%29.93 "Hg16 mi
7:00 AM54 °FPartly sunny.3 mph86%29.94 "Hg11 mi
4:00 AM49 °FFog.2 mph98%29.98 "Hg1 mi
3:00 AM49 °FFog.1 mph97%30.00 "Hg2 mi
Weather by CustomWeather, © 2015

See weather overviewHow to use our weather pages